Weather History for KDLZ - July, 2013

Change the Weather History Date:

Thursday, July 25, 2013

  Actual Average (KCMH) Record (KCMH)
Temperature  
Mean Temperature 62 °F 75 °F  
Max Temperature 75 °F 85 °F 104 °F (1934)
Min Temperature 48 °F 66 °F 52 °F (1911)
Degree Days  
Heating Degree Days 4 0  
Month to date heating degree days 0  
Since 1 June heating degree days 19  
Since 1 July heating degree days 0  
Cooling Degree Days 0 10  
Month to date cooling degree days 250  
Year to date cooling degree days 548  
Since 1 June cooling degree days 466  
Growing Degree Days 12 (Base 50)    
Moisture  
Dew Point 51 °F    
Average Humidity 68    
Maximum Humidity 94    
Minimum Humidity 41    
Precipitation  
Precipitation 0.00 in 0.16 in 1.61 in (1945)
Month to date precipitation 3.94  
Year to date precipitation 23.52  
Snow  
Snow 0.00 in 0.00 in - ()
Month to date snowfall 0.0  
Since 1 June snowfall 0.0  
Since 1 July snowfall 0.0  
Snow Depth -    
Sea Level Pressure  
Sea Level Pressure 30.08 in    
Wind  
Wind Speed 4 mph (NNE)    
Max Wind Speed 10 mph    
Max Gust Speed -    
Visibility 10 miles    
Events      
T = Trace of Precipitation, MM = Missing Value Source: NWS Daily Summary

Daily Weather History Graph

Daily Weather History Graph

Search for Another Location

Airport or City:

Trip Planner

Search our weather history database for the weather conditions in past years. The results will help you decide how hot, cold, wet, or windy it might be!

Date:

Astronomy

Jul. 25, 2013 Rise Set
Actual Time 6:23 AM EDT 8:53 PM EDT
Civil Twilight 5:52 AM EDT 9:24 PM EDT
Nautical Twilight 5:14 AM EDT 10:02 PM EDT
Astronomical Twilight 4:30 AM EDT 10:45 PM EDT
Moon 10:33 PM EDT (7/25) 9:52 AM EDT (7/25)
Length of Visible Light 15h 31m
Length of Day
14h 29m
Waning Gibbous, 88% of the Moon is Illuminated
Jul 25
Waning Gibbous
Jul 29
Last Quarter
Aug 6
New
Aug 14
First Quarter
Aug 20
Full

Hourly Weather History & Observations

Time (EDT) Temp. Dew Point Humidity Pressure Visibility Wind Dir Wind Speed Gust Speed Precip Events Conditions
12:14 AM 55.4 °F 50.0 °F 82% 30.04 in 10.0 mi NE 5.8 mph - N/A   Clear
12:35 AM 55.4 °F 50.0 °F 82% 30.04 in 10.0 mi NE 4.6 mph - N/A   Clear
12:55 AM 55.4 °F 50.0 °F 82% 30.04 in 10.0 mi NNE 3.5 mph - N/A   Clear
1:14 AM 53.6 °F 50.0 °F 88% 30.04 in 10.0 mi NNE 3.5 mph - N/A   Clear
1:35 AM 53.6 °F 50.0 °F 88% 30.04 in 10.0 mi Calm Calm - N/A   Clear
1:55 AM 51.8 °F 50.0 °F 94% 30.04 in 10.0 mi Calm Calm - N/A   Clear
2:14 AM 51.8 °F 50.0 °F 94% 30.05 in 10.0 mi Calm Calm - N/A   Clear
2:35 AM 51.8 °F 50.0 °F 94% 30.04 in 10.0 mi Calm Calm - N/A   Clear
2:55 AM 51.8 °F 50.0 °F 94% 30.04 in 10.0 mi Calm Calm - N/A   Clear
3:14 AM 50.0 °F 48.2 °F 94% 30.04 in 10.0 mi Calm Calm - N/A   Clear
3:35 AM 50.0 °F 48.2 °F 94% 30.05 in 10.0 mi Calm Calm - N/A   Clear
3:55 AM 50.0 °F 48.2 °F 94% 30.05 in 10.0 mi Calm Calm - N/A   Clear
4:14 AM 50.0 °F 48.2 °F 94% 30.05 in 10.0 mi Calm Calm - N/A   Clear
4:35 AM 50.0 °F 48.2 °F 94% 30.06 in 10.0 mi Calm Calm - N/A   Clear
4:55 AM 50.0 °F 46.4 °F 87% 30.06 in 10.0 mi Calm Calm - N/A   Clear
5:14 AM 50.0 °F 46.4 °F 87% 30.06 in 10.0 mi Calm Calm - N/A   Clear
5:35 AM 50.0 °F 46.4 °F 87% 30.06 in 10.0 mi Calm Calm - N/A   Clear
5:54 AM 50.0 °F 46.4 °F 87% 30.06 in 10.0 mi Calm Calm - N/A   Clear
6:14 AM 48.2 °F 46.4 °F 93% 30.06 in 10.0 mi Calm Calm - N/A   Clear
6:35 AM 50.0 °F 46.4 °F 87% 30.07 in 10.0 mi NNE 3.5 mph - N/A   Clear
6:54 AM 50.0 °F 48.2 °F 94% 30.07 in 10.0 mi Calm Calm - N/A   Clear
7:14 AM 51.8 °F 50.0 °F 94% 30.07 in 10.0 mi Calm Calm - N/A   Clear
7:35 AM 53.6 °F 51.8 °F 94% 30.07 in 10.0 mi NE 3.5 mph - N/A   Clear
7:54 AM 55.4 °F 51.8 °F 88% 30.08 in 10.0 mi North 3.5 mph - N/A   Clear
8:14 AM 57.2 °F 51.8 °F 82% 30.09 in 10.0 mi Calm Calm - N/A   Clear
8:35 AM 59.0 °F 51.8 °F 77% 30.09 in 10.0 mi NNE 5.8 mph - N/A   Clear
8:54 AM 60.8 °F 51.8 °F 72% 30.09 in 10.0 mi North 3.5 mph - N/A   Clear
9:14 AM 62.6 °F 50.0 °F 63% 30.10 in 10.0 mi Calm Calm - N/A   Clear
9:35 AM 64.4 °F 48.2 °F 56% 30.10 in 10.0 mi ENE 5.8 mph - N/A   Clear
9:54 AM 64.4 °F 48.2 °F 56% 30.10 in 10.0 mi ENE 8.1 mph - N/A   Clear
10:14 AM 66.2 °F 48.2 °F 52% 30.09 in 10.0 mi ENE 5.8 mph - N/A   Clear
10:35 AM 68.0 °F 50.0 °F 52% 30.10 in 10.0 mi NE 5.8 mph - N/A   Clear
10:54 AM 68.0 °F 50.0 °F 52% 30.09 in 10.0 mi NNE 9.2 mph - N/A   Clear
11:15 AM 68.0 °F 50.0 °F 52% 30.10 in 10.0 mi NNE 10.4 mph - N/A   Clear
11:35 AM 69.8 °F 51.8 °F 53% 30.10 in 10.0 mi NE 9.2 mph - N/A   Clear
11:54 AM 69.8 °F 50.0 °F 49% 30.11 in 10.0 mi NNE 10.4 mph - N/A   Clear
12:15 PM 71.6 °F 50.0 °F 46% 30.10 in 10.0 mi North 5.8 mph - N/A   Clear
12:34 PM 71.6 °F 50.0 °F 46% 30.10 in 10.0 mi NNW 3.5 mph - N/A   Clear
12:55 PM 71.6 °F 50.0 °F 46% 30.10 in 10.0 mi NE 10.4 mph - N/A   Clear
1:15 PM 71.6 °F 51.8 °F 50% 30.10 in 10.0 mi North 8.1 mph - N/A   Clear
1:34 PM 73.4 °F 51.8 °F 47% 30.09 in 10.0 mi North 5.8 mph - N/A   Clear
1:55 PM 73.4 °F 53.6 °F 50% 30.09 in 10.0 mi NNW 4.6 mph - N/A   Clear
2:15 PM 73.4 °F 51.8 °F 47% 30.09 in 10.0 mi NW 8.1 mph - N/A   Clear
2:34 PM 73.4 °F 51.8 °F 47% 30.09 in 10.0 mi North 5.8 mph - N/A   Clear
2:55 PM 75.2 °F 53.6 °F 47% 30.09 in 10.0 mi NNW 8.1 mph - N/A   Clear
3:15 PM 75.2 °F 53.6 °F 47% 30.09 in 10.0 mi NNE 8.1 mph - N/A   Clear
3:34 PM 75.2 °F 51.8 °F 44% 30.09 in 10.0 mi North 4.6 mph - N/A   Clear
3:55 PM 75.2 °F 51.8 °F 44% 30.09 in 10.0 mi North 5.8 mph - N/A   Clear
4:15 PM 75.2 °F 51.8 °F 44% 30.10 in 10.0 mi North 9.2 mph - N/A   Clear
4:34 PM 75.2 °F 50.0 °F 41% 30.09 in 10.0 mi North 4.6 mph - N/A   Clear
4:55 PM 75.2 °F 51.8 °F 44% 30.09 in 10.0 mi North 4.6 mph - N/A   Clear
5:15 PM 73.4 °F 51.8 °F 47% 30.10 in 10.0 mi North 4.6 mph - N/A   Clear
5:34 PM 75.2 °F 51.8 °F 44% 30.10 in 10.0 mi North 5.8 mph - N/A   Scattered Clouds
5:55 PM 73.4 °F 50.0 °F 44% 30.09 in 10.0 mi NNE 6.9 mph - N/A   Clear
6:15 PM 73.4 °F 51.8 °F 47% 30.08 in 10.0 mi North 4.6 mph - N/A   Clear
6:35 PM 73.4 °F 50.0 °F 44% 30.08 in 10.0 mi NNE 8.1 mph - N/A   Clear
6:55 PM 71.6 °F 50.0 °F 46% 30.08 in 10.0 mi North 5.8 mph - N/A   Clear
7:14 PM 71.6 °F 51.8 °F 50% 30.08 in 10.0 mi North 4.6 mph - N/A   Clear
7:35 PM 71.6 °F 51.8 °F 50% 30.09 in 10.0 mi North 5.8 mph - N/A   Clear
7:55 PM 69.8 °F 53.6 °F 56% 30.08 in 10.0 mi North 3.5 mph - N/A   Clear
8:14 PM 68.0 °F 55.4 °F 64% 30.08 in 10.0 mi North 3.5 mph - N/A   Clear
8:35 PM 64.4 °F 55.4 °F 73% 30.09 in 10.0 mi Calm Calm - N/A   Clear
8:55 PM 62.6 °F 55.4 °F 77% 30.10 in 10.0 mi Calm Calm - N/A   Clear
9:14 PM 62.6 °F 55.4 °F 77% 30.10 in 10.0 mi North 3.5 mph - N/A   Clear
9:35 PM 60.8 °F 53.6 °F 77% 30.10 in 10.0 mi North 5.8 mph - N/A   Clear
9:55 PM 62.6 °F 53.6 °F 72% 30.11 in 10.0 mi North 5.8 mph - N/A   Clear
10:14 PM 60.8 °F 53.6 °F 77% 30.11 in 10.0 mi North 5.8 mph - N/A   Clear
10:35 PM 60.8 °F 53.6 °F 77% 30.12 in 10.0 mi North 5.8 mph - N/A   Clear
10:55 PM 60.8 °F 53.6 °F 77% 30.11 in 10.0 mi NE 5.8 mph - N/A   Clear
11:14 PM 60.8 °F 53.6 °F 77% 30.10 in 10.0 mi NE 5.8 mph - N/A   Clear
11:35 PM 60.8 °F 53.6 °F 77% 30.11 in 10.0 mi NE 4.6 mph - N/A   Clear
11:55 PM 60.8 °F 53.6 °F 77% 30.11 in 10.0 mi NE 3.5 mph - N/A   Clear